FW3887 Weather Reports


Display with metric or nautical units.
time (UTC)temp
F
wind
direction
speed
MPH
gust
MPH
rain 1hr
in
rain 24hr
in
rain mn
in
humidity
%
barometer
mb
20260505024737 54 60 5.0 8.0 0.00 0.00 0.00 57 1009.9
20260505024237 54 35 4.0 8.0 0.00 0.00 0.00 57 1009.9
20260505023737 54 52 4.0 9.0 0.00 0.00 0.00 61 1009.8
20260505023237 55 54 2.0 5.0 0.00 0.00 0.00 59 1009.7
20260505022758 55 60 2.0 6.0 0.00 0.00 0.00 58 1009.6
20260505022237 55 18 3.0 6.0 0.00 0.00 0.00 57 1009.5
20260505021758 55 51 1.0 5.0 0.00 0.00 0.00 55 1009.6
20260505021237 55 78 1.0 5.0 0.00 0.00 0.00 56 1009.8
20260505020737 56 325 2.0 5.0 0.00 0.00 0.00 55 1009.8
20260505020237 56 333 2.0 6.0 0.00 0.00 0.00 55 1009.9
20260505015737 56 318 3.0 6.0 0.00 0.00 0.00 54 1009.7
20260505015237 56 330 1.0 3.0 0.00 0.00 0.00 54 1009.5
20260505014737 56 33 0.0 1.0 0.00 0.00 0.00 54 1009.3
20260505014237 57 33 0.0 2.0 0.00 0.00 0.00 54 1009.3
20260505013737 57 33 0.0 4.0 0.00 0.00 0.00 53 1009.3
20260505013237 57 5 0.0 5.0 0.00 0.00 0.00 51 1009.3
20260505012737 58 342 2.0 7.0 0.00 0.00 0.00 50 1009.3
20260505012237 58 334 4.0 7.0 0.00 0.00 0.00 47 1009.1
20260505011737 58 346 2.0 6.0 0.00 0.00 0.00 45 1009.0
20260505011237 58 325 3.0 6.0 0.00 0.00 0.00 44 1008.9
20260505010737 58 2 3.0 6.0 0.00 0.00 0.00 45 1008.9
20260505010237 58 -1 3.0 9.0 0.00 0.00 0.00 45 1008.7
20260505005737 58 -1 4.0 9.0 0.00 0.00 0.00 46 1008.7
20260505005237 58 -1 4.0 13.0 0.00 0.00 0.00 46 1008.6
20260505004737 58 40 5.0 13.0 0.00 0.00 0.00 46 1008.4
20260505004237 58 4 5.0 14.0 0.00 0.00 0.00 47 1008.6
20260505003737 58 22 6.0 12.0 0.00 0.00 0.00 48 1008.6
20260505003237 58 356 6.0 19.0 0.00 0.00 0.00 47 1008.7
20260505002737 58 29 9.0 19.0 0.00 0.00 0.00 47 1008.7
20260505002237 58 57 11.0 17.0 0.00 0.00 0.00 45 1008.7
20260505001737 59 36 9.0 16.0 0.00 0.00 0.00 44 1008.6
20260505001237 59 45 8.0 16.0 0.00 0.00 0.00 43 1008.6
20260505000737 60 56 11.0 16.0 0.00 0.00 0.00 41 1008.5
20260505000237 62 57 7.0 16.0 0.00 0.00 0.00 38 1008.4
20260504235737 63 347 6.0 13.0 0.00 0.00 0.00 32 1008.1
20260504235237 63 328 6.0 13.0 0.00 0.00 0.00 32 1008.0
20260504234737 63 354 6.0 12.0 0.00 0.00 0.00 31 1008.0
20260504234237 64 332 7.0 12.0 0.00 0.00 0.00 31 1008.0
20260504233737 64 354 5.0 12.0 0.00 0.00 0.00 31 1008.0
20260504233237 64 353 6.0 13.0 0.00 0.00 0.00 31 1007.9
20260504232737 64 341 6.0 11.0 0.00 0.00 0.00 30 1007.9
20260504232237 64 337 5.0 12.0 0.00 0.00 0.00 31 1007.9
20260504231737 64 334 6.0 13.0 0.00 0.00 0.00 31 1007.8
20260504231237 64 344 7.0 15.0 0.00 0.00 0.00 31 1007.6
20260504230737 64 4 6.0 15.0 0.00 0.00 0.00 30 1007.6
20260504230237 65 7 6.0 15.0 0.00 0.00 0.00 30 1007.4
20260504225737 65 19 8.0 15.0 0.00 0.00 0.00 29 1007.3
20260504225258 65 335 7.0 16.0 0.00 0.00 0.00 29 1007.4
20260504224737 66 342 9.0 16.0 0.00 0.00 0.00 29 1007.2
20260504224237 66 328 9.0 18.0 0.00 0.00 0.00 28 1007.0
20260504223737 67 346 9.0 19.0 0.00 0.00 0.00 27 1007.0
20260504223258 67 357 8.0 19.0 0.00 0.00 0.00 27 1007.0
20260504222737 68 353 7.0 14.0 0.00 0.00 0.00 26 1006.9
20260504222258 68 7 6.0 18.0 0.00 0.00 0.00 26 1007.0
20260504221737 69 326 8.0 19.0 0.00 0.00 0.00 25 1007.0
20260504221237 70 17 12.0 19.0 0.00 0.00 0.00 24 1006.7
20260504220758 70 311 7.0 17.0 0.00 0.00 0.00 24 1006.7
20260504220237 70 353 8.0 16.0 0.00 0.00 0.00 24 1006.8
20260504215737 68 13 8.0 16.0 0.00 0.00 0.00 25 1006.9
20260504215237 68 5 7.0 16.0 0.00 0.00 0.00 24 1007.0
20260504214737 68 357 6.0 17.0 0.00 0.00 0.00 24 1007.1
20260504214258 68 340 8.0 17.0 0.00 0.00 0.00 24 1007.0
20260504213737 68 343 6.0 15.0 0.00 0.00 0.00 23 1006.9
20260504213237 69 1 8.0 14.0 0.00 0.00 0.00 22 1006.9
20260504212737 69 334 6.0 15.0 0.00 0.00 0.00 21 1006.9
20260504212237 69 355 7.0 15.0 0.00 0.00 0.00 21 1006.9
20260504211737 70 42 7.0 12.0 0.00 0.00 0.00 21 1006.9
20260504211237 70 319 5.0 11.0 0.00 0.00 0.00 19 1007.0
20260504210737 70 22 6.0 18.0 0.00 0.00 0.00 19 1007.0
20260504210237 71 43 10.0 18.0 0.00 0.00 0.00 20 1006.8
20260504205737 71 341 3.0 7.0 0.00 0.00 0.00 19 1006.9
20260504205237 70 339 3.0 8.0 0.00 0.00 0.00 18 1006.9
20260504204758 70 224 2.0 16.0 0.00 0.00 0.00 18 1007.0
20260504204237 70 311 6.0 13.0 0.00 0.00 0.00 18 1007.1
20260504203737 70 305 5.0 10.0 0.00 0.00 0.00 18 1007.0
20260504203258 70 221 3.0 12.0 0.00 0.00 0.00 17 1007.0
20260504202737 70 235 5.0 14.0 0.00 0.00 0.00 17 1007.2
20260504202237 70 284 3.0 14.0 0.00 0.00 0.00 17 1007.0
20260504201737 71 268 4.0 9.0 0.00 0.00 0.00 17 1006.9
20260504201237 71 308 3.0 10.0 0.00 0.00 0.00 17 1006.8
20260504200737 71 329 5.0 10.0 0.00 0.00 0.00 16 1006.9
20260504200237 72 319 3.0 8.0 0.00 0.00 0.00 16 1006.9
20260504195737 72 272 3.0 5.0 0.00 0.00 0.00 16 1006.9
20260504195237 72 315 1.0 8.0 0.00 0.00 0.00 16 1006.8
20260504194737 72 338 3.0 11.0 0.00 0.00 0.00 16 1006.8
20260504194258 72 353 7.0 11.0 0.00 0.00 0.00 16 1006.8
20260504193737 73 259 2.0 6.0 0.00 0.00 0.00 17 1006.8
20260504193237 73 320 3.0 6.0 0.00 0.00 0.00 16 1006.8
20260504192737 73 313 2.0 7.0 0.00 0.00 0.00 16 1006.9
20260504192237 74 249 2.0 8.0 0.00 0.00 0.00 16 1006.8
20260504191737 74 299 4.0 8.0 0.00 0.00 0.00 16 1006.8
20260504191237 74 290 5.0 9.0 0.00 0.00 0.00 16 1006.8
20260504190737 75 269 2.0 8.0 0.00 0.00 0.00 15 1006.9
20260504190237 75 329 4.0 9.0 0.00 0.00 0.00 15 1006.9
20260504185737 76 326 4.0 8.0 0.00 0.00 0.00 15 1006.9
20260504185237 76 309 4.0 8.0 0.00 0.00 0.00 15 1007.0
20260504184737 76 302 3.0 12.0 0.00 0.00 0.00 14 1007.0
20260504184237 75 309 7.0 12.0 0.00 0.00 0.00 16 1007.0
20260504183737 75 336 5.0 12.0 0.00 0.00 0.00 15 1007.1
20260504183237 75 332 4.0 12.0 0.00 0.00 0.00 16 1007.2
20260504182737 76 353 6.0 12.0 0.00 0.00 0.00 16 1007.1
20260504182258 75 343 5.0 10.0 0.00 0.00 0.00 17 1007.2
20260504181737 75 313 5.0 10.0 0.00 0.00 0.00 17 1007.3
20260504181237 74 307 5.0 11.0 0.00 0.00 0.00 18 1007.4
20260504180737 74 323 6.0 14.0 0.00 0.00 0.00 17 1007.4
20260504180237 74 275 3.0 14.0 0.00 0.00 0.00 17 1007.5
20260504175737 73 321 3.0 10.0 0.00 0.00 0.00 17 1007.6
20260504175237 73 297 3.0 12.0 0.00 0.00 0.00 17 1007.7
20260504174758 74 287 4.0 12.0 0.00 0.00 0.00 17 1007.9
20260504174237 74 300 5.0 12.0 0.00 0.00 0.00 17 1007.9
20260504173737 74 293 4.0 10.0 0.00 0.00 0.00 18 1007.9
20260504173237 74 314 4.0 10.0 0.00 0.00 0.00 18 1007.9
20260504172758 73 272 4.0 11.0 0.00 0.00 0.00 18 1008.0
20260504172237 73 301 5.0 12.0 0.00 0.00 0.00 18 1008.0
20260504171758 73 302 5.0 12.0 0.00 0.00 0.00 17 1008.0
20260504171237 73 283 5.0 14.0 0.00 0.00 0.00 19 1008.1
20260504170737 72 319 6.0 12.0 0.00 0.00 0.00 19 1008.1
20260504170237 72 305 4.0 12.0 0.00 0.00 0.00 20 1008.1
20260504160237 71 273 6.0 14.0 0.00 0.00 0.00 20 1008.3
20260504150737 66 274 4.0 13.0 0.00 0.00 0.00 23 1008.6
20260504150237 66 273 4.0 9.0 0.00 0.00 0.00 24 1008.6
20260504141237 62 251 2.0 11.0 0.00 0.00 0.00 29 1008.7
20260504140737 61 248 4.0 11.0 0.00 0.00 0.00 30 1008.6
20260504140237 59 229 4.0 9.0 0.00 0.00 0.00 32 1008.7
20260504130737 48 254 0.0 2.0 0.00 0.00 0.00 49 1008.7
20260504130258 48 254 0.0 2.0 0.00 0.00 0.00 49 1008.7
20260504120237 47 230 1.0 4.0 0.00 0.00 0.00 48 1008.5
20260504110258 46 247 1.0 5.0 0.00 0.00 0.00 52 1008.9
20260504100423 46 248 1.0 5.0 0.00 0.00 0.00 51 1009.1
20260504081737 51 260 2.0 6.0 0.00 0.00 0.00 41 1009.6
20260504081237 51 264 2.0 6.0 0.00 0.00 0.00 41 1009.7
20260504080737 51 268 2.0 7.0 0.00 0.00 0.00 41 1009.8
20260504080237 51 287 3.0 7.0 0.00 0.00 0.00 41 1009.9
20260504070237 54 187 0.0 4.0 0.00 0.00 0.00 37 1010.0
20260504060237 58 343 2.0 7.0 0.00 0.00 0.00 30 1010.3
20260504050237 58 247 0.0 3.0 0.00 0.00 0.00 29 1010.1
20260504045737 59 242 0.0 3.0 0.00 0.00 0.00 28 1010.1
20260504045237 59 245 1.0 3.0 0.00 0.00 0.00 28 1010.2
20260504044758 59 243 0.0 2.0 0.00 0.00 0.00 28 1010.2
20260504044237 59 243 0.0 2.0 0.00 0.00 0.00 28 1010.3
20260504043737 60 243 0.0 2.0 0.00 0.00 0.00 27 1010.3
20260504043258 60 243 0.0 2.0 0.00 0.00 0.00 27 1010.4
20260504042737 60 243 0.0 2.0 0.00 0.00 0.00 26 1010.4
20260504042237 61 243 0.0 2.0 0.00 0.00 0.00 26 1010.4
20260504041737 61 243 0.0 2.0 0.00 0.00 0.00 25 1010.5
20260504041237 62 242 1.0 2.0 0.00 0.00 0.00 25 1010.5
20260504040737 62 256 0.0 2.0 0.00 0.00 0.00 24 1010.6
20260504040258 62 242 0.0 2.0 0.00 0.00 0.00 24 1010.6
20260504035737 63 247 1.0 5.0 0.00 0.00 0.00 23 1010.7
20260504035237 63 264 1.0 5.0 0.00 0.00 0.00 23 1010.6
20260504034758 64 273 0.0 3.0 0.00 0.00 0.00 23 1010.7
20260504034237 64 303 0.0 4.0 0.00 0.00 0.00 22 1010.6
20260504033737 64 288 1.0 4.0 0.00 0.00 0.00 22 1010.7
20260504033237 65 244 1.0 6.0 0.00 0.00 0.00 21 1010.6
20260504032737 65 286 1.0 9.0 0.00 0.00 0.00 21 1010.6
20260504032237 65 266 2.0 11.0 0.00 0.00 0.00 21 1010.6
20260504031737 65 278 4.0 11.0 0.00 0.00 0.00 21 1010.7
20260504031237 65 228 5.0 10.0 0.00 0.00 0.00 21 1010.6
20260504030737 65 337 4.0 10.0 0.00 0.00 0.00 22 1010.5
20260504030237 65 263 4.0 10.0 0.00 0.00 0.00 22 1010.5
20260504025737 65 240 4.0 10.0 0.00 0.00 0.00 23 1010.6
20260504025237 65 254 4.0 12.0 0.00 0.00 0.00 23 1010.7